Menomonie, WI

8:01 AM CST on December 09, 2019 (GMT -0600)
Menomonie

Weather History for KLUM - October, 2019

Change the Weather History Date:

Wednesday, October 16, 2019

  Actual Average (KEAU) Record (KEAU)
Temperature  
Mean Temperature 41 °F -  
Max Temperature 45 °F 57 °F 85 °F (1947)
Min Temperature 37 °F 35 °F 17 °F (1952)
Degree Days  
Heating Degree Days 24    
Moisture  
Dew Point 35 °F    
Average Humidity 81    
Maximum Humidity 93    
Minimum Humidity 62    
Precipitation  
Precipitation 0.00 in - - ()
Sea Level Pressure  
Sea Level Pressure 30.04 in    
Wind  
Wind Speed 10 mph (WNW)    
Max Wind Speed 15 mph    
Max Gust Speed 22 mph    
Visibility 10 miles    
Events      
Averages and records for this station are not official NWS values.
T = Trace of Precipitation, MM = Missing Value Source: NWS Daily Summary

Daily Weather History Graph

Daily Weather History Graph

Search for Another Location

Airport or City:

Astronomy

Oct. 16, 2019 Rise Set
Actual Time 7:24 AM CDT 6:21 PM CDT
Civil Twilight 6:54 AM CDT 6:50 PM CDT
Nautical Twilight 6:20 AM CDT 7:24 PM CDT
Astronomical Twilight 5:46 AM CDT 7:58 PM CDT
Moon 8:08 PM CDT (10/16) 10:00 AM CDT (10/16)
Length of Visible Light 11h 56m
Length of Day
10h 57m
Waning Gibbous, 92% of the Moon is Illuminated
Oct 16
Waning Gibbous
Oct 21
Last Quarter
Oct 27
New
Nov 4
First Quarter
Nov 12
Full

Hourly Weather History & Observations

Time (CDT) Temp. Windchill Dew Point Humidity Pressure Visibility Wind Dir Wind Speed Gust Speed Precip Events Conditions
12:15 AM 37.8 °F 30.2 °F 35.8 °F 93% 29.98 in 10.0 mi WNW 11.5 mph - N/A   Light Drizzle
12:35 AM 37.8 °F 31.8 °F 35.6 °F 92% 29.98 in 10.0 mi WNW 8.1 mph - N/A   Mostly Cloudy
12:55 AM 37.4 °F 30.3 °F 35.6 °F 93% 29.99 in 10.0 mi WNW 10.4 mph - N/A   Scattered Clouds
1:15 AM 38.1 °F 31.7 °F 35.8 °F 91% 29.99 in 10.0 mi WNW 9.2 mph - N/A   Mostly Cloudy
1:35 AM 38.5 °F 31.6 °F 35.8 °F 90% 30.00 in 10.0 mi WNW 10.4 mph - N/A   Overcast
1:55 AM 38.7 °F 31.8 °F 35.8 °F 89% 30.00 in 10.0 mi NW 10.4 mph - N/A   Overcast
2:15 AM 38.7 °F 32.9 °F 35.6 °F 89% 30.00 in 10.0 mi WNW 8.1 mph - N/A   Overcast
2:35 AM 37.4 °F 30.8 °F 35.6 °F 93% 30.00 in 10.0 mi West 9.2 mph - N/A   Scattered Clouds
2:55 AM 37.2 °F 31.9 °F 35.4 °F 93% 30.01 in 10.0 mi WNW 6.9 mph - N/A   Mostly Cloudy
3:35 AM 38.3 °F 31.4 °F 35.6 °F 90% 30.01 in 10.0 mi WNW 10.4 mph - N/A   Overcast
3:55 AM 37.6 °F 31.0 °F 35.2 °F 91% 30.01 in 10.0 mi WNW 9.2 mph - N/A   Mostly Cloudy
4:15 AM 37.4 °F 31.4 °F 35.6 °F 93% 30.02 in 10.0 mi WNW 8.1 mph - N/A   Scattered Clouds
4:35 AM 38.7 °F 31.8 °F 35.8 °F 89% 30.02 in 10.0 mi WNW 10.4 mph - N/A   Mostly Cloudy
4:55 AM 39.2 °F 32.5 °F 36.1 °F 89% 30.03 in 10.0 mi WNW 10.4 mph 16.1 mph N/A   Overcast
5:15 AM 38.7 °F 30.9 °F 36.3 °F 91% 30.03 in 10.0 mi WNW 12.7 mph 17.3 mph N/A   Overcast
5:35 AM 38.5 °F 31.1 °F 36.5 °F 93% 30.03 in 10.0 mi WNW 11.5 mph - N/A   Mostly Cloudy
5:55 AM 38.8 °F 31.6 °F 36.9 °F 93% 30.04 in 10.0 mi WNW 11.5 mph - N/A   Overcast
6:15 AM 39.2 °F 33.6 °F 36.5 °F 90% 30.04 in 10.0 mi WNW 8.1 mph - N/A   Overcast
6:35 AM 38.7 °F 31.8 °F 36.3 °F 91% 30.04 in 10.0 mi NW 10.4 mph - N/A   Overcast
6:55 AM 38.8 °F 33.8 °F 36.5 °F 91% 30.04 in 10.0 mi NW 6.9 mph - N/A   Overcast
7:15 AM 39.0 °F 33.4 °F 36.5 °F 91% 30.04 in 10.0 mi WNW 8.1 mph - N/A   Overcast
7:35 AM 39.2 °F 32.0 °F 36.5 °F 90% 30.04 in 10.0 mi WNW 11.5 mph 17.3 mph N/A   Overcast
7:55 AM 39.2 °F 32.5 °F 35.6 °F 87% 30.05 in 10.0 mi WNW 10.4 mph 21.9 mph N/A   Overcast
8:15 AM 39.2 °F 31.6 °F 35.8 °F 88% 30.05 in 10.0 mi WNW 12.7 mph 16.1 mph N/A   Overcast
8:35 AM 39.4 °F 31.8 °F 35.6 °F 86% 30.05 in 10.0 mi NW 12.7 mph 20.7 mph N/A   Overcast
9:35 AM 40.3 °F 33.4 °F 34.7 °F 80% 30.07 in 10.0 mi WNW 11.5 mph - N/A   Overcast
9:55 AM 40.3 °F 32.6 °F 34.3 °F 79% 30.08 in 10.0 mi NW 13.8 mph 19.6 mph N/A   Overcast
10:15 AM 40.3 °F 34.9 °F 34.0 °F 78% 30.08 in 10.0 mi NW 8.1 mph 19.6 mph N/A   Overcast
10:35 AM 41.0 °F 34.3 °F 33.6 °F 75% 30.08 in 10.0 mi NNW 11.5 mph - N/A   Overcast
10:55 AM 41.4 °F 34.7 °F 33.6 °F 74% 30.09 in 10.0 mi NNW 11.5 mph 18.4 mph N/A   Overcast
11:35 AM 41.9 °F 36.9 °F 33.6 °F 72% 30.09 in 10.0 mi NNW 8.1 mph - N/A   Overcast
11:55 AM 42.1 °F 34.9 °F 34.0 °F 73% 30.09 in 10.0 mi NW 13.8 mph 21.9 mph N/A   Overcast
12:15 PM 43.5 °F 37.1 °F 34.2 °F 70% 30.09 in 10.0 mi WNW 12.7 mph 18.4 mph N/A   Overcast
12:35 PM 44.4 °F 39.0 °F 33.6 °F 66% 30.08 in 10.0 mi NNW 10.4 mph 16.1 mph N/A   Overcast
1:15 PM 44.2 °F 39.7 °F 33.3 °F 65% 30.07 in 10.0 mi NW 8.1 mph - N/A   Overcast
1:35 PM 44.8 °F 38.3 °F 34.7 °F 68% 30.06 in 10.0 mi WNW 13.8 mph 21.9 mph N/A   Overcast
1:55 PM 45.5 °F 38.9 °F 33.1 °F 62% 30.06 in 10.0 mi NW 15.0 mph 21.9 mph N/A   Mostly Cloudy
2:15 PM 44.2 °F 37.3 °F 34.3 °F 68% 30.06 in 10.0 mi West 15.0 mph 19.6 mph N/A   Mostly Cloudy
2:35 PM 44.6 °F 39.7 °F 34.2 °F 67% 30.06 in 10.0 mi WNW 9.2 mph - N/A   Overcast
2:55 PM 44.6 °F 39.2 °F 34.5 °F 68% 30.05 in 10.0 mi WNW 10.4 mph - N/A   Overcast
3:15 PM 44.6 °F 40.2 °F 34.3 °F 67% 30.05 in 10.0 mi WNW 8.1 mph - N/A   Overcast
3:35 PM 44.6 °F 39.2 °F 34.2 °F 67% 30.04 in 10.0 mi NW 10.4 mph - N/A   Overcast
3:55 PM 44.4 °F 40.5 °F 34.2 °F 67% 30.04 in 10.0 mi WNW 6.9 mph - N/A   Overcast
4:15 PM 44.1 °F 39.0 °F 35.6 °F 72% 30.05 in 10.0 mi West 9.2 mph - N/A   Overcast
4:35 PM 43.9 °F 39.3 °F 36.0 °F 74% 30.05 in 10.0 mi West 8.1 mph - N/A   Overcast
4:55 PM 43.7 °F 40.3 °F 35.8 °F 74% 30.04 in 10.0 mi West 5.8 mph - N/A   Overcast
5:15 PM 43.7 °F 41.1 °F 35.6 °F 73% 30.04 in 10.0 mi West 4.6 mph - N/A   Overcast
5:35 PM 43.9 °F 40.5 °F 35.8 °F 73% 30.04 in 10.0 mi West 5.8 mph - N/A   Overcast
5:55 PM 43.5 °F 41.9 °F 36.3 °F 76% 30.04 in 10.0 mi West 3.5 mph - N/A   Overcast
6:15 PM 43.2 °F 39.0 °F 35.4 °F 74% 30.04 in 10.0 mi West 6.9 mph - N/A   Overcast
6:35 PM 42.6 °F 37.8 °F 35.6 °F 76% 30.04 in 10.0 mi West 8.1 mph - N/A   Overcast
6:55 PM 42.4 °F 38.1 °F 35.6 °F 77% 30.04 in 10.0 mi West 6.9 mph - N/A   Overcast
7:15 PM 42.3 °F 37.3 °F 35.6 °F 77% 30.04 in 10.0 mi West 8.1 mph - N/A   Overcast
7:35 PM 42.1 °F 37.7 °F 35.6 °F 78% 30.04 in 10.0 mi West 6.9 mph - N/A   Overcast
7:55 PM 41.9 °F 37.5 °F 35.6 °F 78% 30.04 in 10.0 mi West 6.9 mph - N/A   Overcast
8:15 PM 41.9 °F 36.9 °F 35.6 °F 78% 30.04 in 10.0 mi West 8.1 mph - N/A   Overcast
8:35 PM 41.5 °F 37.8 °F 35.8 °F 80% 30.04 in 10.0 mi West 5.8 mph - N/A   Overcast
8:55 PM 41.4 °F 38.4 °F 35.8 °F 81% 30.04 in 10.0 mi WSW 4.6 mph - N/A   Overcast
9:15 PM 41.2 °F 37.3 °F 35.6 °F 81% 30.05 in 10.0 mi West 5.8 mph - N/A   Overcast
9:35 PM 41.0 °F 37.1 °F 35.6 °F 81% 30.05 in 10.0 mi West 5.8 mph - N/A   Overcast
9:55 PM 41.0 °F 36.4 °F 35.2 °F 80% 30.05 in 10.0 mi West 6.9 mph - N/A   Overcast
10:15 PM 40.5 °F 35.1 °F 35.1 °F 81% 30.05 in 10.0 mi West 8.1 mph - N/A   Overcast
10:35 PM 40.3 °F 36.3 °F 34.9 °F 81% 30.05 in 10.0 mi West 5.8 mph - N/A   Overcast
10:55 PM 40.1 °F 34.7 °F 34.7 °F 81% 30.06 in 10.0 mi West 8.1 mph - N/A   Overcast
11:15 PM 39.7 °F 35.6 °F 34.9 °F 83% 30.05 in 10.0 mi West 5.8 mph - N/A   Overcast
11:35 PM 39.6 °F 34.7 °F 35.1 °F 84% 30.05 in 10.0 mi West 6.9 mph - N/A   Overcast
11:55 PM 39.4 °F 35.2 °F 34.9 °F 84% 30.05 in 10.0 mi West 5.8 mph - N/A   Overcast